Location: Maccacari
(45.1333°N, 11.1333°E)
Time: 13:48:23
(UTC+00:00)

S-56A Canister/Altair - Pass Details

Date: 23 January 2021
Orbit: 631 x 2501 km, 38.9° (Epoch: 01 March)

Event Time Altitude Azimuth Distance (km) Brightness Sun altitude
Rises 05:39:14 0° 267° (W) 3,008 - -11.6°
Reaches altitude 10° 05:41:30 10° 258° (WSW) 2,190 - -11.2°
Exits shadow 05:41:39 11° 257° (WSW) 2,140 9.3 -11.2°
Maximum altitude 05:46:01 35° 192° (SSW) 1,336 8.8 -10.4°
Drops below altitude 10° 05:52:03 10° 129° (SE) 2,941 11.8 -9.4°
Sets 05:55:34 0° 122° (ESE) 4,210 13.2 -8.8°
